Temperature
32 31 30 32 33 32 32 31 31 32 34 33 32 32 32 32 31 30 29 28 26 25 24 23 23 22 21 21 20 20 20 19 19 19 19 19 19 19 18 19 18 18 18 18
31 30 32 34 34 33 33 32 32 33 33 33 32 32 32 32 31 30 29 28 27 25 24 23 23 22 21 20 20 20 19 19 19 19 19 19 19 19 18 18 18 18 18 18
32 32 34 34 34 33 33 33 33 32 33 33 32 30 31 31 31 30 30 28 27 26 25 24 23 22 21 21 20 20 19 19 19 19 19 19 19 19 18 18 18 18 18 18
33 33 34 34 34 33 32 34 34 33 32 30 31 29 30 30 30 30 30 29 28 27 26 24 23 22 22 21 20 20 19 19 19 19 19 19 19 19 18 18 18 18 18 18
33 33 33 33 34 34 33 34 33 33 32 31 31 29 28 30 29 30 30 29 28 27 26 25 24 23 22 22 21 20 20 19 19 19 19 19 18 18 18 18 18 18 18 18
33 34 34 34 35 35 34 34 33 32 31 29 30 29 28 29 29 29 30 29 28 27 26 25 24 23 23 22 21 20 20 20 19 19 19 19 18 18 18 18 18 18 18 17
32 33 34 34 33 34 34 32 30 29 29 29 30 30 29 30 30 30 29 28 28 27 26 25 24 23 23 22 21 21 20 20 19 19 19 19 18 18 18 18 18 18 18 17
31 32 33 33 33 33 33 32 30 29 29 30 30 29 29 31 30 30 29 28 28 27 26 25 25 24 23 22 21 21 20 20 20 19 19 19 18 18 18 18 18 17 17 17
32 32 34 34 35 34 33 33 33 32 31 30 29 29 29 30 30 29 29 28 27 27 26 25 24 24 23 22 21 21 20 20 19 19 19 18 18 18 18 17 17 17 17 17
33 32 33 34 34 34 34 33 33 31 29 29 29 29 29 29 29 29 28 28 27 27 26 25 24 24 23 22 22 21 20 20 19 19 18 18 18 18 17 17 17 17 17 17
34 32 32 33 32 32 32 32 31 31 30 29 28 29 30 29 29 29 28 28 28 27 26 25 24 23 23 22 22 21 20 20 19 19 18 18 18 17 17 17 17 17 17 16
34 32 31 32 34 34 33 32 32 30 29 29 29 28 31 30 30 29 28 28 27 27 26 25 24 23 23 22 21 21 20 20 19 19 18 18 18 17 17 17 17 16 16 16
33 32 30 31 32 33 32 32 32 32 31 29 29 28 30 30 29 29 28 27 27 26 25 24 24 23 22 22 21 20 20 19 19 18 18 18 17 17 17 16 16 16 16 16
32 32 31 30 30 31 31 32 32 31 30 29 29 28 28 28 28 28 27 27 26 25 25 24 23 22 21 21 20 20 19 19 18 18 18 17 17 17 17 16 16 16 16 16
32 31 31 31 31 32 31 32 32 31 31 30 29 28 28 28 28 27 27 26 26 25 24 23 23 22 21 20 20 19 19 18 18 18 18 17 17 16 16 16 16 16 16 15
32 31 30 30 31 31 31 32 32 32 31 30 30 28 29 28 27 26 26 26 25 24 24 23 22 21 20 20 19 19 18 18 18 18 17 17 17 16 16 16 16 15 15 15
31 30 29 29 30 31 30 31 32 31 31 31 29 28 28 27 27 26 26 25 25 24 23 22 22 21 20 19 19 18 18 18 18 17 17 16 16 16 15 15 15 15 15 15
30 29 29 29 29 28 30 31 32 31 31 31 30 29 29 28 26 26 25 24 24 24 23 22 21 20 20 19 19 18 18 18 17 17 16 16 16 15 15 15 15 15 14 14
31 29 29 28 28 28 29 30 31 30 29 30 29 29 28 27 26 25 24 24 23 23 22 21 21 20 20 19 18 18 17 17 17 17 16 16 15 15 15 15 14 14 14 14
31 30 28 28 27 27 28 29 30 30 28 29 28 28 28 27 26 24 23 23 22 22 21 21 20 20 19 19 18 17 17 17 16 16 16 15 15 15 15 14 14 14 14 14
29 28 28 27 27 27 28 29 29 27 26 27 27 27 26 26 25 23 23 22 21 21 21 20 20 19 19 18 17 17 17 16 16 16 15 15 15 15 14 14 14 14 13 13
28 27 27 27 26 26 27 28 26 25 26 26 26 25 25 24 23 23 22 21 21 20 20 20 19 19 18 18 17 17 16 16 15 15 15 15 15 14 14 14 14 14 13 13
27 27 27 26 25 25 25 25 25 25 25 25 25 24 24 23 23 22 21 21 20 20 19 19 19 18 18 17 16 16 16 15 15 15 15 15 14 14 14 14 14 14 13 13
27 27 26 25 26 26 25 25 24 24 24 24 24 23 23 22 22 21 21 20 19 19 19 18 18 17 17 16 16 16 15 15 15 15 14 14 14 14 14 14 14 14 13 13
25 25 25 24 24 24 24 24 24 24 24 23 23 23 22 22 21 21 20 19 19 18 18 18 17 17 16 16 16 15 15 15 14 14 14 14 14 14 14 14 14 14 14 13
24 24 24 24 23 23 23 23 23 23 23 22 22 22 21 21 20 20 19 19 18 18 18 17 17 16 16 16 15 15 14 14 14 14 14 14 14 14 14 14 14 13 13 13
Wind_Speed
9 8 8 9 8 7 6 5 4 2 2 2 4 5 6 7 7 8 9 9 10 10 9 8 8 8 8 8 7 6 4 4 2 1 1 1 1 1 2 2 2 2 2 2
10 10 13 12 7 6 7 7 4 3 2 3 2 3 4 5 7 7 9 10 11 11 10 9 8 8 8 8 7 6 4 4 2 1 0 1 1 1 2 2 2 2 2 2
12 8 10 11 9 7 8 7 6 4 3 4 4 4 5 6 7 7 8 10 11 11 11 10 8 7 8 8 7 6 5 4 3 2 1 1 1 1 2 2 2 2 2 2
9 7 9 11 10 8 8 7 7 5 5 6 6 4 5 8 7 7 7 8 9 11 11 11 10 8 8 8 8 6 5 4 3 2 1 1 2 2 1 1 2 2 1 1
9 9 10 10 9 8 7 7 9 10 8 8 5 2 2 6 6 7 8 8 9 10 11 11 11 9 9 9 8 7 6 5 4 3 2 0 1 1 1 2 2 2 1 1
11 9 8 9 9 8 7 8 10 10 7 8 6 3 3 4 8 7 8 8 8 9 10 10 11 10 8 8 8 8 7 5 4 3 2 1 1 1 1 1 1 1 2 2
10 11 10 8 10 8 9 8 5 6 5 6 5 3 4 7 8 8 9 9 8 8 10 9 10 9 8 8 8 8 8 6 4 3 2 2 1 1 1 0 0 0 1 2
10 10 8 7 9 8 8 8 6 7 7 5 2 0 4 7 8 9 8 8 9 8 9 9 9 9 8 8 7 8 7 6 5 4 2 2 1 1 1 0 0 1 1 1
7 7 7 7 8 7 7 8 10 9 9 6 1 4 5 6 7 8 9 8 8 9 9 9 8 8 8 8 7 7 7 5 5 4 4 3 2 1 1 0 1 1 1 1
9 7 6 6 6 9 9 10 8 6 6 6 3 4 5 6 6 7 8 9 10 10 9 9 8 7 7 7 7 7 7 6 5 4 3 3 3 2 2 1 2 2 2 3
11 9 8 7 7 8 6 7 6 6 6 7 5 2 5 8 7 7 7 7 7 8 9 9 8 7 6 6 7 6 6 6 5 5 3 3 3 3 2 2 2 2 2 2
7 8 9 9 7 6 7 8 7 6 5 7 6 2 1 4 7 8 7 7 8 8 8 8 8 7 7 6 6 6 6 6 6 5 4 3 3 3 2 2 1 1 1 1
6 6 8 8 7 6 6 8 9 8 7 6 6 1 2 3 6 6 6 7 8 8 8 7 7 7 6 6 5 4 4 5 5 5 4 3 2 2 2 1 1 1 1 1
5 9 10 10 8 7 8 10 10 9 8 8 4 2 4 2 5 6 5 7 8 7 8 7 7 7 7 6 5 4 3 4 5 4 4 3 2 1 1 1 1 1 1 0
8 11 11 12 12 12 13 13 12 10 9 9 5 3 4 5 5 6 5 4 7 7 7 7 7 6 6 5 4 5 4 3 4 3 3 3 2 2 1 1 1 1 0 1
9 11 12 13 14 15 14 13 12 9 7 6 6 3 3 5 7 7 6 5 6 6 6 6 7 6 5 4 4 4 3 4 4 3 3 2 2 2 2 1 1 1 2 2
9 9 11 13 14 15 13 11 9 8 7 6 5 2 6 5 6 6 5 5 5 6 6 6 6 6 5 4 4 3 4 4 4 3 2 2 2 2 1 1 2 2 2 2
11 10 9 12 12 14 9 9 9 6 5 3 1 2 5 8 7 6 4 4 5 5 5 5 4 5 5 4 4 2 3 4 3 3 2 2 2 1 1 1 1 1 1 1
12 9 10 11 13 12 8 8 7 6 2 3 2 2 5 6 6 5 5 4 4 4 4 4 3 4 4 4 4 3 2 3 2 2 2 1 1 1 0 1 1 1 1 1
13 10 11 11 13 12 7 7 7 5 0 4 4 3 3 3 2 4 6 5 4 4 4 4 3 4 4 3 3 2 2 2 2 1 1 1 1 1 0 0 0 1 1 1
11 11 12 12 12 8 6 6 4 4 2 6 5 4 5 5 4 5 7 6 4 4 3 3 3 4 4 3 3 2 1 1 2 2 1 1 1 1 1 1 1 1 1 1
9 8 9 10 11 6 8 5 3 3 5 7 6 7 7 6 6 6 6 5 4 4 3 2 2 3 3 3 2 1 1 1 2 2 2 1 2 2 1 1 2 2 1 2
6 5 4 3 1 2 5 6 5 4 5 5 5 5 5 5 6 6 5 4 3 3 3 1 2 3 2 2 2 2 1 2 2 2 2 2 2 1 1 2 2 2 2 2
3 3 4 3 0 2 3 4 3 4 4 4 4 4 3 3 4 4 3 3 2 2 2 1 1 2 2 2 2 2 2 2 2 2 2 2 2 2 2 2 2 1 1 1
7 3 4 4 2 4 3 2 3 4 3 3 4 3 3 3 2 2 2 2 2 2 2 1 0 1 2 2 2 2 2 2 2 2 2 3 3 2 2 1 1 1 0 1
6 5 4 4 2 3 4 3 1 2 2 2 3 2 2 1 1 1 2 2 2 1 1 1 0 0 1 2 2 2 2 2 3 3 3 2 2 2 2 1 1 3 1 3
Wind_Direction
240 245 262 259 244 247 258 260 266 239 239 239 157 159 164 162 163 152 143 141 135 134 132 130 131 126 123 118 116 113 112 104 98 97 130 145 134 129 115 111 89 66 23 6
240 242 256 265 268 268 277 275 254 249 240 255 189 182 165 162 153 153 148 145 144 142 138 136 131 131 130 123 122 123 122 125 133 128 125 139 125 132 101 78 94 77 45 0
241 240 250 263 267 267 272 276 286 291 303 264 203 222 177 154 154 152 150 146 146 149 146 142 141 141 137 134 137 140 137 133 137 132 137 114 116 82 85 102 96 82 60 34
256 252 250 260 265 265 275 291 298 286 267 263 227 237 180 161 170 161 151 146 148 148 146 147 148 152 150 144 142 133 135 137 136 134 103 100 124 117 100 104 102 107 86 63
255 249 253 265 272 273 279 298 290 278 268 266 237 212 194 174 175 168 156 151 151 148 148 150 152 155 153 150 147 141 135 134 137 143 138 167 84 109 117 108 115 131 133 98
262 259 258 269 275 273 279 278 276 278 277 274 257 226 184 180 167 166 152 147 145 149 147 149 149 150 150 150 146 143 139 140 145 156 151 143 105 81 71 81 107 139 108 83
254 250 244 252 266 254 263 277 285 279 250 253 248 216 132 152 150 146 147 150 142 145 146 144 144 146 149 151 147 144 142 147 152 159 158 143 122 121 82 353 113 12 84 94
235 238 230 239 253 264 265 274 275 286 291 290 275 58 129 124 121 128 135 144 146 145 144 143 148 150 154 152 146 139 142 150 153 151 149 134 138 160 112 320 1 13 358 80
260 248 217 229 245 262 273 281 284 285 288 288 228 137 137 114 120 126 137 145 152 148 147 142 141 150 150 149 145 140 140 145 152 154 151 144 135 110 69 44 50 23 13 37
266 282 255 234 243 245 260 284 304 304 309 300 264 185 158 156 166 147 153 162 165 156 152 142 142 144 147 150 144 137 141 151 150 147 160 151 151 151 116 74 59 48 39 32
265 271 268 246 236 253 258 271 289 292 298 301 304 330 144 169 171 159 158 159 151 150 148 144 144 146 138 138 136 139 136 137 138 133 134 134 139 140 130 107 73 57 43 36
271 274 276 273 250 252 264 270 273 282 283 285 289 294 170 159 146 144 147 147 141 134 142 139 140 138 137 126 124 128 138 142 136 133 131 126 125 121 117 107 94 75 59 61
308 280 276 270 256 239 256 270 279 288 292 281 283 180 131 107 115 116 132 140 131 132 125 124 122 117 107 100 99 106 129 127 123 126 128 123 118 122 128 120 94 78 48 52
283 270 274 280 294 295 282 274 266 273 281 285 289 166 155 141 134 133 131 126 127 122 120 121 117 111 106 104 99 93 92 107 116 117 119 116 119 115 110 106 119 93 45 13
261 267 275 283 285 281 275 277 275 264 268 284 284 265 168 164 146 134 129 134 127 126 129 124 117 114 118 113 110 111 107 96 100 114 117 110 105 87 75 60 51 47 325 328
260 275 281 279 279 281 275 274 275 274 279 281 278 285 136 131 135 135 140 143 141 136 130 123 118 118 119 121 116 106 98 91 97 100 96 92 85 76 65 51 41 26 17 3
264 272 278 279 282 284 273 278 276 282 285 270 273 205 157 149 141 139 143 153 143 138 127 120 126 131 129 128 121 113 111 108 107 101 84 82 80 77 63 26 32 28 24 12
258 267 271 274 276 271 278 302 299 288 292 325 6 152 153 135 138 128 135 144 139 133 128 129 141 142 142 134 134 123 125 125 127 129 120 95 90 82 76 70 31 1 356 321
253 250 258 266 268 266 272 288 294 290 319 11 2 92 111 122 118 104 108 124 123 118 119 131 148 147 141 147 148 146 155 145 142 140 135 120 111 101 93 73 8 346 332 320
242 239 247 254 263 266 279 314 335 318 219 29 22 31 96 118 140 108 98 93 86 94 105 115 133 134 134 144 141 146 154 152 141 137 131 135 166 153 178 159 254 294 294 295
234 232 239 253 261 266 308 317 321 297 32 32 42 42 71 75 77 100 105 97 91 86 91 111 133 133 131 129 125 143 171 161 143 139 139 163 198 211 210 191 202 270 280 281
248 239 239 252 260 274 1 359 19 54 49 48 42 52 64 75 85 89 89 88 96 95 94 94 114 108 115 121 122 138 145 128 139 156 157 186 197 226 223 201 230 234 253 263
255 266 263 264 251 75 46 51 54 66 62 51 49 59 67 74 93 91 79 70 74 88 100 116 122 121 125 131 134 164 153 158 170 176 183 197 198 195 210 223 232 233 234 253
285 332 304 306 173 100 97 76 40 51 65 61 65 67 68 60 87 93 90 85 82 65 72 72 109 146 139 137 135 158 159 167 182 192 208 210 202 200 205 226 229 241 260 295
309 308 286 278 318 343 341 39 39 32 42 57 59 46 40 47 62 89 95 89 84 72 55 73 167 160 129 122 136 158 155 177 187 198 211 223 206 202 204 207 262 224 229 198
299 300 278 273 325 309 316 349 20 18 3 25 37 19 34 32 13 86 95 94 86 71 64 70 77 85 137 142 157 166 180 179 185 198 212 232 220 199 215 174 74 40 92 128
Height
1472 1475 1476 1469 1465 1466 1465 1471 1471 1465 1457 1460 1465 1468 1468 1471 1474 1477 1482 1486 1490 1494 1498 1500 1502 1503 1504 1504 1505 1506 1507 1508 1509 1510 1510 1511 1511 1512 1512 1511 1511 1511 1511 1511
1472 1475 1466 1460 1458 1459 1462 1468 1467 1462 1456 1461 1467 1468 1466 1469 1472 1476 1479 1484 1488 1492 1496 1499 1501 1503 1504 1504 1505 1506 1507 1508 1509 1509 1510 1511 1511 1512 1512 1511 1511 1511 1511 1511
1470 1465 1459 1459 1458 1462 1462 1464 1463 1464 1459 1458 1465 1474 1468 1468 1471 1474 1477 1481 1486 1490 1494 1497 1500 1502 1503 1504 1505 1506 1507 1508 1508 1509 1510 1511 1511 1511 1512 1511 1511 1510 1510 1510
1461 1458 1458 1458 1458 1458 1466 1454 1456 1459 1466 1472 1469 1488 1474 1470 1471 1472 1476 1480 1484 1488 1491 1495 1498 1501 1502 1504 1505 1506 1507 1508 1508 1509 1510 1511 1511 1511 1511 1511 1511 1510 1510 1509
1461 1457 1458 1459 1456 1453 1457 1451 1455 1457 1463 1470 1468 1484 1484 1470 1473 1472 1474 1478 1482 1485 1489 1493 1496 1499 1501 1503 1505 1506 1507 1507 1508 1509 1509 1510 1511 1511 1511 1511 1511 1510 1509 1508
1455 1453 1454 1454 1450 1449 1449 1453 1455 1456 1464 1485 1473 1482 1488 1472 1471 1471 1472 1477 1481 1484 1488 1491 1495 1498 1500 1503 1504 1505 1506 1507 1508 1508 1509 1509 1510 1510 1510 1510 1510 1510 1509 1508
1462 1456 1451 1451 1454 1450 1451 1463 1481 1487 1489 1487 1465 1472 1478 1464 1463 1466 1471 1476 1480 1483 1487 1490 1494 1496 1499 1502 1503 1505 1505 1506 1507 1507 1508 1508 1509 1509 1509 1509 1509 1509 1508 1508
1468 1467 1451 1450 1453 1455 1452 1459 1482 1496 1493 1480 1468 1476 1471 1460 1463 1466 1470 1474 1479 1482 1486 1489 1492 1495 1498 1501 1503 1504 1504 1505 1506 1506 1507 1507 1508 1508 1508 1509 1509 1508 1508 1507
1460 1461 1446 1445 1445 1448 1455 1456 1451 1464 1469 1479 1476 1473 1467 1460 1463 1467 1470 1474 1478 1482 1485 1488 1492 1495 1497 1499 1501 1503 1503 1504 1505 1506 1506 1506 1507 1507 1507 1508 1508 1507 1507 1507
1448 1459 1448 1444 1446 1445 1448 1449 1455 1468 1484 1490 1481 1475 1474 1469 1466 1467 1470 1473 1476 1480 1484 1487 1491 1494 1496 1498 1500 1501 1503 1503 1504 1505 1505 1506 1506 1506 1506 1506 1506 1506 1506 1505
1444 1456 1454 1448 1452 1454 1452 1455 1459 1463 1469 1485 1492 1482 1458 1462 1463 1466 1469 1472 1475 1479 1482 1486 1489 1493 1495 1498 1499 1501 1502 1502 1503 1504 1504 1504 1505 1505 1505 1505 1505 1505 1504 1504
1444 1451 1459 1452 1442 1441 1445 1451 1456 1471 1474 1472 1479 1481 1455 1456 1459 1464 1469 1472 1474 1478 1481 1485 1488 1491 1494 1496 1498 1500 1501 1501 1502 1502 1503 1504 1504 1504 1504 1504 1503 1503 1503 1503
1448 1455 1468 1465 1456 1447 1448 1447 1448 1453 1462 1470 1478 1480 1458 1459 1462 1466 1469 1471 1474 1478 1482 1485 1488 1490 1493 1495 1497 1499 1501 1501 1501 1502 1502 1502 1503 1503 1503 1503 1502 1502 1501 1501
1451 1454 1464 1474 1465 1455 1456 1451 1448 1454 1467 1469 1469 1470 1463 1463 1464 1468 1471 1472 1476 1479 1482 1485 1488 1491 1493 1495 1496 1498 1500 1501 1501 1501 1501 1501 1501 1501 1501 1501 1501 1500 1500 1499
1449 1456 1456 1453 1450 1449 1451 1450 1447 1451 1454 1461 1463 1464 1461 1460 1464 1467 1470 1473 1476 1479 1482 1485 1488 1490 1493 1494 1496 1497 1499 1500 1500 1501 1500 1500 1500 1500 1500 1500 1499 1499 1498 1498
1448 1455 1456 1458 1452 1448 1449 1445 1444 1445 1446 1453 1455 1459 1456 1457 1463 1467 1470 1474 1476 1480 1482 1485 1488 1490 1492 1494 1496 1497 1498 1498 1499 1500 1499 1499 1499 1499 1499 1498 1498 1498 1497 1496
1450 1456 1463 1464 1453 1450 1455 1445 1443 1444 1443 1447 1455 1458 1457 1460 1463 1467 1470 1473 1476 1479 1482 1485 1488 1489 1491 1493 1494 1495 1496 1497 1498 1498 1499 1499 1498 1498 1498 1498 1497 1496 1495 1495
1451 1456 1459 1462 1462 1475 1454 1439 1438 1441 1443 1443 1446 1450 1453 1458 1463 1467 1471 1474 1477 1479 1482 1485 1487 1489 1491 1492 1493 1494 1495 1495 1496 1497 1497 1497 1497 1497 1496 1496 1495 1495 1494 1494
1445 1452 1459 1463 1466 1461 1450 1442 1441 1444 1450 1447 1449 1451 1454 1459 1463 1468 1471 1475 1477 1480 1482 1484 1486 1488 1490 1491 1492 1493 1493 1493 1494 1495 1495 1495 1495 1495 1495 1494 1494 1493 1492 1492
1442 1445 1456 1460 1468 1472 1457 1445 1443 1446 1456 1452 1452 1455 1456 1458 1465 1471 1473 1476 1478 1480 1482 1483 1485 1487 1488 1489 1490 1491 1491 1491 1492 1492 1493 1493 1493 1493 1493 1493 1492 1492 1491 1490
1447 1449 1454 1459 1463 1458 1449 1446 1447 1462 1465 1456 1456 1458 1459 1463 1467 1472 1473 1476 1478 1480 1482 1483 1484 1485 1486 1487 1488 1489 1490 1490 1490 1491 1491 1491 1492 1492 1492 1492 1491 1490 1490 1489
1448 1451 1455 1458 1466 1467 1453 1449 1457 1463 1459 1460 1460 1462 1464 1467 1469 1472 1474 1476 1477 1478 1480 1482 1483 1484 1485 1486 1486 1487 1488 1488 1488 1489 1489 1489 1490 1490 1490 1490 1489 1489 1488 1488
1445 1448 1451 1455 1461 1459 1458 1459 1460 1460 1462 1463 1464 1465 1467 1469 1471 1473 1475 1477 1478 1479 1480 1481 1482 1483 1484 1484 1484 1485 1485 1486 1486 1486 1486 1487 1487 1488 1488 1488 1488 1487 1487 1486
1446 1447 1450 1454 1454 1456 1458 1461 1462 1463 1464 1465 1466 1468 1469 1470 1472 1474 1475 1477 1478 1479 1479 1481 1482 1482 1482 1482 1482 1483 1483 1483 1483 1484 1484 1485 1485 1485 1486 1486 1486 1486 1486 1485
1453 1453 1455 1456 1457 1458 1459 1461 1463 1463 1465 1466 1467 1469 1470 1471 1473 1474 1475 1477 1478 1478 1478 1479 1480 1481 1481 1480 1480 1481 1481 1481 1481 1481 1482 1483 1484 1484 1484 1484 1485 1484 1484 1484
1455 1456 1458 1459 1459 1462 1463 1462 1464 1464 1466 1467 1468 1470 1471 1472 1473 1474 1475 1476 1477 1477 1478 1478 1479 1479 1479 1479 1479 1479 1479 1479 1479 1479 1480 1481 1482 1482 1482 1482 1483 1483 1483 1482